DELTA 1 DEB, 7163

Orbit data source: Space-Track

DELTA 1 DEB, 7163 is space debris in SSO originally from a launch on Tue, 06 Nov 1973 UTC launched from the Air Force Western Test Range (AFWTR). Debris objects in space refer to the collection of defunct objects orbiting the Earth. Examples of debris include non-operational satellites, rocket bodies, and fragments generated from explosions, collisions, or faulty payload assembly.

Loading next visibility...
Identifier
7163, 1973-086EB
Orbit
SSO
Country
Flag of USUS
Related business
Manufacturer
Unknown
Mission
Spacecraft
Bus & Motor
Unknown
Mass
Unknown
Launch date (UTC)
1973-11-06 (53 years ago)
Launch vehicle
Unknown
Launch site
Air Force Western Test Range (AFWTR)
Object type
Payload
Rocket body
Debris
Shape & HBR
Unknown shape, 0.2 m
Radar Cross Section
Medium (>0.1 m² and <1 m²)

Expand to show TLE details & history
Last TLE update: 20 hours ago

TLE from 20 hours ago
0 DELTA 1 DEB
1  7163U 73086EB  26209.02088403 -.00000009  00000-0  30323-3 0  9999
2  7163 102.4507 235.1846 0064809  61.7376 355.1085 12.31355711368951
Epoch: 2026-07-28T00:30Z
TLE epoch observation values (Epoch: 2026-07-28T00:30:04.380Z)
Latitude
54.87244°
Longitude
-96.22748°
Altitude
1,501.137 km
Speed
7.142 km/s
True Right ascension
14h 27m 56s
True Declination
54° 43' 33"
Sunlit
Object was in daylight at epoch
Visualization orbit readout
Latitude
Unknown
Longitude
Unknown
Altitude
Unknown
Speed
Unknown
Apparent Right ascension
Unknown
Apparent Declination
Unknown
Sunlit
N/A
Visualization observer readout
Local Sidereal Time
09:34:00
Azimuth
Unknown
Elevation
Unknown
Doppler factor
Unknown
Orbital elements
Apogee altitude
1,592.398 km
Perigee altitude
1,489.751 km
Semi-major axis
7,919.211 km
Eccentricity
0.00648
Inclination
102.4507°
RAAN
235.1846°
Arg. of periapsis
61.7376°
True anomaly
355.04466°
Mean anomaly
355.1085°
Eccentric anomaly
355.07663°
Mean motion
3.07978 °/min
Orbital period
116.89 mins
BSTAR
0.00030323
Loading maneuver chart data...
Computing Atmospheric mass density...
Loading historical data...
Loading historical data...
Loading historical data...
Loading historical data...
Loading historical data...
Loading historical data...
Loading historical data...

Documentation

Showing up to 5 results
|